Weather Roundup
Issued by NWS

Home | Current Version | Previous Version | Text Only | Print | Product List | Glossary On
Versions: 1 2 3 4 5 6 7 8 9 10 11 12 13 14 15 16 17 18 19 20 21 22 23 24 25 26 27 28 29 30 31 32 33 34 35 36 37 38 39 40 41 42 43 44 45 46 47 48 49 50
000
NZUS93 KARX 242310
HRRWXR

CURRENT HOURLY OBSERVATIONS ACROSS
MUCH OF THE UPPER MISSISSIPPI VALLEY
NATIONAL WEATHER SERVICE LA CROSSE WI
500 PM CST SAT JAN 24 2015


...SOUTHEAST MINNESOTA...


CITY           SKY/WX    TMP DP  RH WIND       PRES   REMARKS
ROCHESTER      CLOUDY    34  31  88 SE5       29.59S WCI  30
ROCHESTER/MAYO MOCLDY    38  31  78 S3        29.60R
WINONA         MOCLDY    37  32  81 CALM      29.61S
AUSTIN         CLOUDY    37  34  87 SW3       29.58F
ALBERT LEA     CLOUDY    37  36  93 SW6       29.58S WCI  33
DODGE CENTER   CLOUDY    36  34  93 SW3       29.58S
PRESTON        CLOUDY    35  31  88 S3        29.60S
OWATONNA       CLOUDY    37  34  87 CALM      29.58S
FARIBAULT      CLOUDY    37  34  87 CALM      29.59S
$$

...ELSEWHERE IN MINNESOTA...


CITY           SKY/WX    TMP DP  RH WIND       PRES   REMARKS
MINNEAPOLIS    CLOUDY    39  30  70 SW3       29.59R
INTNL FALLS    CLEAR     19   8  62 NE7       29.72R WCI  10
DULUTH         CLOUDY    30  26  85 E20       29.62R WCI  17
RED WING       CLOUDY    37  30  75 CALM      29.59S
REDWOOD FALLS  CLOUDY    38  33  82 NW5       29.57F WCI  34
MANKATO        CLOUDY    37  34  87 W6        29.58S WCI  33
WORTHINGTON    CLOUDY    37  32  81 W6        29.58F WCI  33
FAIRMONT       CLOUDY    37  30  75 W8        29.58F WCI  31
$$

...SOUTHWEST WISCONSIN...


CITY           SKY/WX    TMP DP  RH WIND       PRES   REMARKS
LA CROSSE      MOCLDY    37  30  75 CALM      29.60F
PRAIRIE DU CHI MOCLDY    40  33  75 S5        29.62S
BOSCOBEL       PTCLDY    42  32  67 S3        29.62S
LONE ROCK      PTCLDY    32  28  85 CALM      29.63S
PLATTEVILLE    PTCLDY    37  33  87 SW6       29.63S WCI  32
FORT MC COY    MOCLDY    35  30  81 CALM      29.61F
CAMP DOUGLAS   PTCLDY    33  33 100 E2        29.61F
VIROQUA        FAIR      38  32  80 SW3       29.59F
WIS DELLS      MOCLDY    33  29  88 SW3       29.61F
$$

...ELSEWHERE IN WISCONSIN...


CITY           SKY/WX    TMP DP  RH WIND       PRES   REMARKS
MILWAUKEE      CLOUDY    37  29  72 SW9       29.62S WCI  30
MADISON        CLOUDY    34  29  82 CALM      29.64R
GREEN BAY      CLOUDY    36  32  85 W6        29.61R WCI  31
EAU CLAIRE     CLOUDY    36  29  75 CALM      29.59S
BLACK RVR FLS  FAIR      34  29  82 CALM      29.60S
MEDFORD        CLOUDY    34  29  83 NW5       29.59R WCI  30
WAUSAU         CLOUDY    36  30  79 W5        29.58R WCI  32
WIS RAPIDS     CLOUDY    35  29  78 W5        29.63R WCI  31
MARSHFIELD     CLOUDY    35  30  82 CALM      29.60R
RICE LAKE      MOCLDY    35  30  82 NE3       29.60S
$$

...NORTHEAST IOWA...


CITY           SKY/WX    TMP DP  RH WIND       PRES   REMARKS
DECORAH        CLOUDY    39  36  87 CALM      29.60R
MASON CITY     CLOUDY    38  33  82 SW9       29.61F WCI  31
CHARLES CITY   CLOUDY    39  37  93 SW9       29.61F WCI  33
OELWEIN        MOCLDY    41  36  81 SW7       29.62S
$$

...ELSEWHERE IN IOWA...


CITY           SKY/WX    TMP DP  RH WIND       PRES   REMARKS
DES MOINES     CLOUDY    50  29  44 W8        29.65S
IOWA CITY      MOCLDY    43  33  68 S3        29.66F
FORT DODGE     CLOUDY    43  34  70 W3        29.63F
$$

...NORTHERN ILLINOIS...


CITY           SKY/WX    TMP DP  RH WIND       PRES   REMARKS
CHICAGO-OHARE  CLOUDY    34  30  85 W9        29.66R WCI  27
CHICAGO-MIDWAY CLOUDY    38  32  79 W10       29.66R WCI  31
MOLINE         MOCLDY    42  34  73 SW7       29.67R
ROCKFORD       MOCLDY    34  29  82 W5        29.67S WCI  30
PEORIA         CLEAR     44  35  70 SW7       29.70S
$$

NOTE: "FAIR" INDICATES FEW OR NO CLOUDS BELOW 12,000 FEET WITH NO
SIGNIFICANT WEATHER AND/OR OBSTRUCTIONS TO VISIBILITY. WIND
SPEEDS ARE IN MILES-PER-HOUR.



USA.gov is the U.S. government's official web portal to all federal, state and local government web resources and services.